{"data":{"norad_id":59474,"intl_designator":"2024-068V","name":"STARLINK-31581","alt_names":[],"object_type":"PAYLOAD","status":"ACTIVE","operator":null,"country":"US","launch_date":"2024-04-10","launch_site_code":"AFETR","launch_vehicle":null,"mission":null,"orbit_class":"UNKNOWN","rcs_meters":null,"size_class":null,"mass_kg":null,"dimensions":null,"purposes":["comms"],"wikipedia_slug":null,"has_3d_model":false,"image_url":null,"decayed_at":null,"tle_current":{"epoch":"2026-09-21T17:03:03.718080Z","epoch_age_seconds":60504,"freshness":"FRESH","line1":"1 59474U 24068V   26264.71045970  .00000677  00000+0  34116-4 0  9990","line2":"2 59474  43.0041   0.3820 0000659 235.5160 124.5630 15.27580587138582","mean_motion":15.27580587,"eccentricity":6.59e-5,"inclination_deg":43.0041,"raan_deg":0.382,"arg_perigee_deg":235.516,"mean_anomaly_deg":124.563,"bstar":3.4116e-5,"rev_number":13858,"period_min":94.266712489977,"perigee_km":482.59518630315,"apogee_km":483.49949039894,"semimajor_km":6861.184338351,"source":"CELESTRAK","updated_at":"2026-09-22T09:00:48.951009Z"}}}